Probability
0 0 0 0 0 0 0 0 0 0 0 0 0 0 1 1 0 0 0 0 0 0 1 2 3 3 2 1 0 0 0 0 0 0 0 0 0 0 0 1 0 0 0 0 0 0 0 0 1
0 0 0 0 0 0 0 0 0 0 0 0 0 0 1 1 0 0 0 0 0 0 1 2 3 3 3 1 0 0 0 0 0 0 0 0 0 0 0 1 1 1 0 0 0 0 0 1 2
0 0 0 0 0 0 0 0 0 0 0 0 0 0 1 1 0 0 0 0 0 0 1 2 3 3 3 2 1 0 0 0 0 0 0 0 0 0 0 1 2 2 1 1 1 1 1 2 3
0 0 0 0 0 0 0 0 0 0 0 0 0 0 0 0 0 0 1 1 1 1 1 2 4 4 4 3 1 0 0 0 0 0 0 0 0 0 0 0 1 2 3 2 2 1 1 2 3
0 0 0 0 0 0 0 0 0 0 0 0 0 0 0 0 0 1 2 2 2 2 1 2 4 5 5 4 2 0 0 0 0 0 0 0 0 0 0 0 1 2 3 2 1 1 2 2 2
0 0 0 0 0 0 0 0 0 0 0 0 0 0 0 0 0 1 2 3 3 2 1 1 3 4 5 4 2 0 0 0 0 0 0 0 0 0 0 0 0 1 2 2 1 2 3 2 1
0 0 0 0 0 0 0 0 0 0 0 0 0 0 0 0 0 1 2 2 2 1 1 0 1 3 4 3 1 0 0 0 0 0 0 0 0 0 0 0 0 0 1 2 3 4 3 2 1
0 0 0 0 0 0 0 0 0 0 0 0 0 0 0 0 1 2 2 2 1 0 0 0 1 2 3 2 1 0 0 0 0 0 0 0 0 0 0 0 0 0 1 3 5 5 3 1 0
0 0 0 0 0 0 0 0 0 0 0 0 0 0 0 1 2 3 3 2 0 0 0 0 0 1 3 2 1 0 0 0 0 0 0 0 0 0 0 0 0 0 1 2 4 4 3 1 0
0 0 0 0 0 0 0 0 0 0 0 0 0 0 0 1 2 3 3 1 0 0 0 0 0 1 2 2 1 0 0 0 0 0 0 0 0 0 0 0 0 0 0 1 3 3 1 0 0
0 0 0 0 0 0 0 0 0 0 0 0 0 0 0 0 1 3 2 1 0 0 0 0 0 0 1 2 1 0 0 0 0 0 0 0 0 0 0 0 0 0 0 1 2 2 1 0 0
0 0 0 0 0 0 0 0 0 0 0 0 0 0 0 0 1 3 3 1 0 0 0 0 0 0 1 2 1 0 0 0 0 0 0 0 0 0 0 0 0 0 0 1 2 2 1 0 0
0 0 0 0 0 0 0 0 0 0 0 0 0 0 0 0 2 3 3 2 0 0 0 0 0 0 1 2 2 0 0 0 0 0 0 0 0 0 0 0 0 0 0 1 2 2 1 0 0
0 0 0 0 0 0 0 0 0 0 0 0 0 0 0 0 1 2 2 1 0 0 0 0 0 0 1 1 1 0 0 0 0 0 0 0 0 0 0 0 0 0 0 0 1 1 0 0 0
0 0 0 0 0 0 0 0 0 0 0 0 0 0 0 0 0 1 1 0 0 0 0 0 0 0 0 0 0 0 0 0 0 0 0 0 0 0 0 0 0 0 0 0 0 0 0 0 0
0 0 0 0 0 0 0 0 0 0 0 0 0 0 0 0 0 0 0 0 0 0 0 0 0 0 0 0 0 0 0 0 0 0 0 0 0 0 0 0 0 0 0 0 0 0 0 0 0
0 0 0 0 0 0 0 0 0 0 0 0 0 0 0 0 0 0 0 0 0 0 0 1 1 0 0 0 0 0 0 0 0 0 0 0 0 0 0 0 0 0 0 0 0 0 0 0 0
0 0 0 0 0 0 0 0 0 0 0 0 0 0 0 0 0 0 0 0 0 0 0 1 2 1 0 0 0 0 0 0 0 0 0 0 0 0 0 0 0 0 0 0 0 0 0 0 0
0 0 0 0 0 0 0 0 0 0 0 0 0 0 0 0 0 0 0 0 0 0 0 1 2 2 1 1 0 0 0 0 0 0 0 0 0 0 0 0 0 0 0 0 0 0 0 0 0
0 0 0 0 0 0 0 0 0 0 0 0 0 0 0 0 0 0 0 0 0 0 0 0 1 2 2 2 1 0 0 0 0 0 0 0 0 0 0 0 0 0 0 0 0 0 0 0 0
0 0 0 0 0 0 0 0 0 0 0 0 0 0 0 0 0 0 0 0 0 0 0 0 0 1 2 3 2 1 1 0 0 0 0 0 0 0 0 0 0 0 0 0 0 0 0 0 0
0 0 0 0 0 0 0 0 0 0 0 0 0 0 0 0 0 0 0 0 0 0 0 0 0 0 1 2 3 3 2 1 0 0 0 0 0 0 0 0 0 0 0 0 0 0 0 0 0
0 0 0 0 0 0 0 0 0 0 0 0 0 0 0 0 0 0 0 0 0 0 0 0 0 0 0 1 2 3 2 1 0 0 0 0 0 0 0 0 0 0 0 0 0 0 0 0 0
0 0 0 0 0 0 0 0 0 0 0 0 0 0 0 0 0 0 0 0 0 0 0 0 0 0 0 0 1 1 1 1 0 0 0 0 0 0 0 0 0 0 0 0 0 0 0 0 0
0 0 0 0 0 0 0 0 0 0 0 0 0 0 0 0 0 0 0 0 0 0 0 0 0 0 0 0 0 0 0 0 0 0 0 0 0 0 0 0 0 0 0 0 0 0 0 0 0
0 0 0 0 0 0 0 0 0 0 0 0 0 0 0 0 0 0 0 0 0 0 0 0 0 0 0 0 0 0 0 0 0 0 0 0 0 0 0 0 0 0 0 0 0 0 0 0 0
0 0 0 0 0 0 0 0 0 0 0 0 0 0 0 0 0 0 0 0 0 0 0 0 0 0 0 0 0 0 0 0 0 0 0 0 0 0 0 0 0 0 0 0 0 0 0 0 0
0 0 0 0 0 0 0 0 0 0 0 0 0 0 0 0 0 0 0 0 0 0 0 0 0 0 0 0 0 0 0 0 0 0 0 0 0 0 0 0 0 0 0 0 0 0 0 0 0
0 0 0 0 0 0 0 0 0 0 0 0 0 0 0 0 0 0 0 0 0 0 0 0 0 0 0 0 0 0 0 0 0 0 0 0 0 0 0 0 0 0 0 0 0 0 0 0 0
0 0 0 0 0 0 0 0 0 0 0 0 0 0 0 0 0 0 0 0 0 0 0 0 0 0 0 0 0 0 0 0 0 0 0 0 0 0 0 0 0 0 0 0 0 0 0 0 0
Wind_Speed
9 5 2 4 6 4 2 2 2 0 0 1 1 2 3 3 3 2 1 1 3 3 2 3 6 6 7 7 7 7 8 8 9 9 9 10 10 10 10 10 10 10 11 11 11 11 12 12 11
3 3 4 5 4 1 3 2 2 2 1 2 3 2 2 1 1 2 1 0 3 4 3 2 6 7 7 7 7 7 7 8 8 8 8 9 9 9 9 10 10 10 10 10 11 11 11 11 10
2 3 5 5 3 5 4 2 3 1 1 1 2 2 1 0 1 1 1 2 3 3 3 3 7 7 7 7 7 7 7 7 8 8 8 8 8 8 9 9 10 10 10 10 10 10 11 11 10
3 5 5 4 3 3 3 2 2 2 1 2 2 1 0 1 0 1 2 4 5 3 3 3 6 7 7 7 7 7 7 7 7 8 8 8 8 8 9 9 9 9 9 9 9 10 10 10 10
4 4 4 1 2 2 1 0 3 2 1 1 2 1 0 2 2 3 4 4 5 3 3 3 6 7 7 7 6 6 7 7 7 8 8 8 8 8 8 8 8 9 9 9 9 10 10 10 10
5 4 3 3 3 2 1 0 2 2 1 1 2 2 1 1 3 3 3 4 4 4 3 3 5 6 6 6 6 6 7 7 7 7 8 8 8 8 8 8 8 8 9 9 9 9 10 10 10
4 4 3 4 2 2 1 1 2 2 1 1 2 3 1 0 1 2 3 4 4 4 4 3 3 4 5 6 6 6 7 6 7 7 8 8 8 8 8 8 8 8 8 9 9 9 10 10 10
4 5 3 3 3 2 0 1 1 2 1 1 1 3 2 2 2 3 3 4 3 3 3 3 2 3 3 3 5 6 6 6 6 7 8 8 8 8 8 7 7 8 8 8 8 9 9 9 9
3 4 3 4 4 3 1 1 1 1 2 1 1 0 1 4 5 5 3 2 2 2 2 2 2 2 2 3 4 5 5 5 5 5 7 6 4 4 5 7 8 8 8 7 7 8 9 9 9
4 3 4 2 2 2 2 1 1 1 1 1 1 2 3 4 5 5 4 3 3 2 1 1 1 1 2 2 3 2 2 3 3 3 3 3 3 3 4 6 8 8 8 7 7 7 8 6 4
3 3 1 1 1 2 2 1 1 3 2 4 4 2 2 3 4 4 4 3 3 2 2 1 1 1 2 2 2 1 1 2 2 3 2 2 2 2 3 2 4 4 5 4 4 4 3 3 3
3 2 1 1 1 1 2 1 0 2 4 1 2 3 4 4 6 6 5 4 2 2 1 1 1 1 2 2 1 1 1 1 1 1 2 1 1 2 2 2 2 2 2 3 3 2 3 3 3
2 1 2 2 3 2 2 1 1 3 3 1 1 2 4 4 4 4 2 2 2 2 2 1 1 1 2 2 1 1 1 1 1 1 1 1 1 1 1 1 1 2 2 2 2 2 3 3 3
2 2 2 2 2 2 1 1 1 5 1 0 1 3 3 4 4 2 2 2 3 3 2 1 1 2 2 2 2 1 1 1 1 1 0 1 1 1 1 1 1 1 1 2 2 2 2 2 2
2 3 3 2 1 1 1 3 4 4 1 1 2 2 2 3 2 3 4 4 4 2 2 3 3 2 3 2 2 1 1 1 1 0 0 0 1 1 1 1 1 1 1 2 2 3 2 3 3
2 3 2 2 1 2 1 5 4 1 1 3 3 2 3 3 3 3 3 3 2 2 3 3 3 3 3 2 2 1 1 2 1 0 0 0 1 1 1 1 1 1 1 2 2 2 2 2 2
3 1 1 3 2 1 1 5 5 1 0 3 4 4 4 4 4 3 3 2 2 3 3 4 3 4 3 2 2 1 1 1 1 1 0 1 1 1 1 1 1 1 1 1 2 2 2 2 2
2 2 1 2 1 1 1 6 8 3 1 4 5 4 4 5 6 3 2 2 2 3 3 3 3 3 3 2 2 1 1 0 0 1 1 1 1 1 2 1 1 1 1 1 1 2 2 1 1
3 3 2 2 1 0 3 8 11 5 3 5 6 5 5 6 5 2 2 2 2 2 3 3 3 3 3 2 2 2 1 1 0 0 1 1 1 1 2 1 1 1 1 1 2 2 2 1 1
2 2 1 2 1 1 3 8 8 5 4 5 6 6 6 5 4 2 1 2 2 3 3 3 4 4 4 3 2 1 1 1 1 0 0 1 1 1 2 2 2 1 1 2 2 2 1 1 1
1 3 2 2 2 1 4 8 5 3 2 3 4 4 4 5 5 4 2 2 2 3 3 3 4 4 4 3 2 2 2 1 1 0 0 0 1 1 2 2 2 2 2 2 2 3 3 1 0
3 2 2 1 1 3 2 5 7 4 4 4 5 4 5 5 4 4 3 2 3 4 2 3 3 3 3 3 3 3 2 2 2 1 1 0 0 1 1 2 2 2 2 2 2 2 2 2 1
2 2 2 0 1 2 1 2 10 2 4 6 5 5 6 5 4 4 4 4 3 3 2 2 2 2 3 3 4 3 2 1 0 1 1 0 0 0 0 1 2 2 2 2 2 2 1 2 2
3 3 3 3 2 3 3 4 9 4 6 5 4 4 5 4 3 4 2 1 1 1 1 1 2 2 2 3 3 3 3 2 1 0 0 0 0 0 1 0 1 1 2 2 2 2 2 2 1
2 4 3 4 3 6 2 4 11 7 5 5 5 5 4 3 2 3 2 2 1 1 2 2 2 2 2 2 3 3 3 3 3 2 2 1 0 1 1 1 1 1 1 2 2 2 2 2 2
3 4 6 5 4 5 2 7 9 5 4 3 4 4 3 2 2 3 3 3 3 2 2 3 3 2 2 3 3 2 2 2 2 2 2 2 1 1 1 1 1 1 0 1 1 2 2 2 2
4 3 2 5 1 3 6 7 10 4 4 3 3 2 3 3 2 3 2 2 2 3 3 4 4 3 3 3 3 2 2 2 2 2 1 1 1 1 0 1 1 1 1 1 1 1 2 2 2
1 4 4 4 3 4 6 5 6 4 5 4 3 3 3 2 2 2 2 2 2 2 2 2 3 3 3 2 2 2 2 2 2 1 1 1 1 1 0 0 1 1 1 1 1 1 1 1 2
3 2 3 3 4 5 4 8 6 6 5 5 5 4 3 2 2 2 2 1 1 1 2 2 2 2 2 2 2 2 1 1 1 1 1 1 1 0 0 0 0 1 1 1 1 1 1 2 2
3 4 6 5 4 4 3 9 4 4 4 4 4 3 2 2 2 1 1 1 1 1 1 2 2 2 2 2 2 2 1 1 1 1 1 1 1 1 1 1 1 1 1 1 1 2 2 2 3
Wind_Direction
336 335 34 55 59 59 215 237 172 146 157 71 100 118 133 140 158 177 61 102 109 113 96 109 106 100 97 92 86 84 82 81 79 79 77 77 78 77 74 73 72 71 70 69 68 68 67 66 64
328 347 50 62 99 159 252 229 191 202 182 104 70 73 88 106 56 98 119 38 112 110 90 98 105 100 99 96 90 87 84 82 81 81 79 77 77 77 77 75 75 74 73 71 69 67 66 64 65
341 42 77 82 132 184 213 209 188 158 43 92 82 54 77 118 119 150 182 128 105 95 82 101 105 104 102 98 93 89 87 85 83 82 81 81 78 77 77 77 74 76 75 73 72 70 67 65 65
57 47 56 86 193 217 211 218 160 124 41 50 116 86 39 22 168 168 128 117 104 87 78 107 108 106 103 98 95 91 89 86 84 81 80 79 79 77 76 78 76 76 76 75 73 72 69 68 67
59 77 78 96 225 258 283 273 142 133 147 82 128 129 300 359 61 107 116 119 115 93 70 100 104 101 99 95 93 89 86 84 82 79 76 76 77 78 76 76 77 77 77 76 74 72 71 70 69
61 74 113 198 223 263 290 238 137 116 127 111 131 139 203 53 87 110 114 111 111 106 80 79 96 96 94 92 89 85 83 81 79 77 73 71 75 77 75 72 74 76 76 76 73 70 70 69 68
106 108 160 181 196 245 246 106 128 138 146 210 173 152 201 149 119 114 113 108 101 96 88 67 83 87 89 89 83 81 79 76 73 72 69 65 64 64 64 63 68 74 74 74 72 71 70 69 67
118 113 138 179 182 235 192 109 80 142 196 29 141 167 217 203 137 111 107 104 100 88 88 74 76 89 90 83 82 78 77 73 70 69 67 63 58 56 56 52 60 67 70 71 73 71 69 67 63
87 94 183 195 183 213 156 130 25 30 103 55 18 39 19 123 123 115 107 100 110 100 84 86 72 84 93 93 85 74 68 67 64 62 65 61 48 45 45 47 54 59 60 64 70 74 68 62 58
82 153 207 190 167 169 166 141 150 80 49 339 330 15 60 115 139 148 160 173 178 172 147 118 104 123 102 92 86 78 70 62 60 60 60 54 52 47 50 48 48 51 53 56 62 71 68 60 48
95 159 164 73 82 134 135 111 112 144 236 233 225 205 127 142 159 174 188 198 199 183 165 150 148 148 121 103 95 79 75 71 63 62 65 68 60 50 44 41 34 37 43 38 42 56 54 55 52
99 58 58 35 55 93 142 155 129 185 225 279 227 157 150 175 189 195 202 208 194 173 191 143 146 139 124 118 108 92 87 81 73 64 71 85 75 61 51 43 27 33 36 43 42 47 47 52 52
92 82 32 42 58 71 83 119 243 262 268 333 76 132 170 194 203 210 213 195 189 198 199 186 151 161 141 129 128 113 107 96 80 67 63 100 113 99 74 52 35 33 42 52 51 49 41 36 34
117 98 55 24 50 34 59 297 280 269 264 265 162 189 201 205 209 205 210 213 209 214 210 199 185 177 143 136 135 124 120 111 85 59 35 116 126 130 122 84 57 41 40 52 62 59 52 41 35
104 68 25 11 23 -0 12 308 245 264 113 243 233 223 231 235 226 218 218 214 211 213 204 193 188 164 150 147 148 140 139 128 124 105 22 131 140 147 146 134 99 57 42 60 66 58 54 49 39
65 62 350 332 30 3 78 273 290 342 171 251 258 251 249 249 235 236 236 231 202 195 201 197 183 161 161 158 151 145 146 137 142 140 206 199 171 159 156 146 131 113 71 76 79 69 57 43 35
44 91 262 315 15 39 133 263 294 16 62 278 277 260 250 263 263 247 239 238 211 201 200 191 178 169 170 163 144 137 129 136 159 164 207 239 222 183 161 152 136 119 95 87 83 75 82 55 22
201 198 235 261 318 68 249 269 285 291 248 269 277 276 267 265 263 250 228 238 226 206 193 189 178 168 159 147 127 118 104 115 158 191 210 219 214 180 153 144 125 120 107 92 89 94 78 84 41
146 153 228 264 301 296 261 276 284 287 267 270 273 271 267 266 276 270 210 213 214 205 190 189 179 172 159 156 168 173 195 223 231 240 226 204 186 176 155 146 137 138 142 136 122 109 97 72 55
129 142 264 300 353 266 299 287 278 267 244 240 251 259 261 274 299 286 237 189 203 211 203 192 194 182 181 178 170 169 168 186 197 140 24 212 197 187 178 171 178 169 154 136 132 118 115 107 68
194 192 215 260 335 4 331 306 293 281 269 273 259 255 259 248 260 266 247 229 217 221 213 205 201 189 189 172 133 102 90 70 70 1 289 286 208 200 188 177 180 179 171 178 176 156 147 155 115
235 224 175 159 35 309 23 299 292 289 300 285 274 271 266 260 251 248 233 231 225 229 219 208 191 183 180 164 156 151 163 187 216 204 190 26 204 215 204 191 184 185 184 192 193 170 168 152 180
180 99 116 146 174 311 335 247 284 311 285 274 267 265 263 259 247 243 230 222 219 206 198 196 171 168 162 163 166 168 180 192 140 82 93 124 245 248 223 192 188 181 174 184 176 164 174 171 183
128 77 60 47 67 285 234 204 277 246 239 265 266 263 267 263 253 248 244 211 200 156 151 153 154 163 159 165 167 174 187 178 154 221 217 235 319 337 326 212 190 191 179 190 194 175 183 201 202
96 97 36 359 355 258 215 220 254 254 240 239 260 273 276 268 251 249 240 212 199 175 172 171 164 178 165 167 181 190 198 192 203 216 224 225 263 279 264 233 204 218 204 195 182 174 198 200 210
182 154 160 195 234 280 255 241 258 264 261 256 263 272 291 285 250 241 228 210 203 195 185 179 182 188 174 182 200 201 201 196 212 215 217 217 227 239 252 204 206 232 240 216 181 182 206 199 214
150 189 162 126 94 294 270 277 294 274 270 260 260 271 280 283 264 249 238 210 200 196 194 191 190 190 188 195 193 190 193 196 210 208 207 222 241 248 211 198 192 204 199 228 203 205 214 210 223
147 149 123 138 169 260 286 270 256 262 252 246 244 247 266 281 281 268 242 217 207 200 193 179 185 194 196 189 193 195 188 192 197 168 186 215 265 272 197 198 206 216 207 199 201 239 251 230 242
151 154 148 142 168 176 261 268 229 225 222 223 238 244 247 252 250 244 242 227 202 172 168 175 183 185 182 187 189 187 180 179 179 192 219 210 186 138 218 234 213 235 228 210 208 231 229 244 264
199 190 166 172 221 205 223 267 270 233 229 223 239 253 252 249 246 233 228 203 181 191 197 193 192 194 199 185 173 183 178 158 173 216 231 197 196 193 196 191 213 247 253 240 240 254 247 240 252